Weather History for Winner, SD

Change the Weather History Date:

Wednesday, January 23, 2013

  Actual Average Record
Temperature  
Mean Temperature 11 °F 25 °F  
Max Temperature 18 °F 36 °F 36 °F (2011)
Min Temperature 4 °F 14 °F -9 °F (2011)
Degree Days  
Heating Degree Days 54 40  
Month to date heating degree days 893 925  
Since 1 July heating degree days 3307 3631  
Cooling Degree Days 0 0  
Month to date cooling degree days 0 0  
Year to date cooling degree days 0 0  
Moisture  
Dew Point 7 °F    
Average Humidity 77    
Maximum Humidity 92    
Minimum Humidity 61    
Precipitation  
Precipitation 0.00 in 0.01 in 0.01 in (2011)
Month to date precipitation T 0.17  
Year to date precipitation T 0.17  
Sea Level Pressure  
Sea Level Pressure 30.41 in    
Wind  
Wind Speed 9 mph (North)    
Max Wind Speed 16 mph    
Max Gust Speed 18 mph    
Visibility 10 miles    
Events      
T = Trace of Precipitation, MM = Missing Value Source: NWS Daily Summary

Daily Weather History Graph

Daily Weather History Graph

Search for Another Location

Airport:

Trip Planner

Search our weather history database for the weather conditions in past years. The results will help you decide how hot, cold, wet, or windy it might be!

Date:

Astronomy

Jan. 23, 2013 Rise Set
Actual Time 8:03 AM CST 5:39 PM CST
Civil Twilight 7:32 AM CST 6:10 PM CST
Nautical Twilight 6:57 AM CST 6:45 PM CST
Astronomical Twilight 6:23 AM CST 7:19 PM CST
Moon 2:50 PM CST (1/23) 5:17 AM CST (1/23)
Length of Visible Light 10h 38m
Length of Day
9h 36m
Waxing Gibbous, 89% of the Moon is Illuminated
Jan 23
Waxing Gibbous
Jan 26
Full
Feb 3
Last Quarter
Feb 10
New
Feb 17
First Quarter

Hourly Weather History & Observations

Time (CST) Temp. Windchill Dew Point Humidity Pressure Visibility Wind Dir Wind Speed Gust Speed Precip Events Conditions
12:53 AM 14.0 °F 3.9 °F 10.9 °F 88% 30.21 in 10.0 mi WSW 6.9 mph - N/A   Clear
1:53 AM 15.1 °F 4.2 °F 10.9 °F 84% 30.19 in 9.0 mi WSW 8.1 mph - N/A   Clear
2:53 AM 12.9 °F 0.7 °F 10.0 °F 88% 30.22 in 10.0 mi West 9.2 mph - N/A   Clear
3:53 AM 14.0 °F 3.9 °F 10.9 °F 88% 30.23 in 10.0 mi NW 6.9 mph - N/A   Clear
4:53 AM 10.9 °F 1.4 °F 8.1 °F 88% 30.25 in 10.0 mi WNW 5.8 mph - N/A   Clear
5:53 AM 10.9 °F 0.2 °F 8.1 °F 88% 30.28 in 10.0 mi NW 6.9 mph - N/A   Clear
6:53 AM 10.9 °F -1.8 °F 8.1 °F 88% 30.31 in 10.0 mi NW 9.2 mph - N/A   Clear
7:53 AM 10.0 °F -0.9 °F 7.0 °F 87% 30.33 in 10.0 mi NNW 6.9 mph - N/A   Clear
8:53 AM 10.9 °F -0.8 °F 8.1 °F 88% 30.37 in 10.0 mi NNW 8.1 mph - N/A   Clear
9:53 AM 14.0 °F -0.8 °F 9.0 °F 80% 30.40 in 10.0 mi North 13.8 mph - N/A   Clear
10:53 AM 16.0 °F 1.1 °F 10.0 °F 77% 30.45 in 10.0 mi North 15.0 mph - N/A   Scattered Clouds
11:26 AM 15.8 °F 2.1 °F 8.6 °F 73% 30.35 in 10.0 mi North 12.7 mph - N/A   Mostly Cloudy
11:53 AM 16.0 °F 2.9 °F 9.0 °F 74% 30.46 in 10.0 mi North 11.5 mph - N/A   Mostly Cloudy
12:15 PM 15.8 °F 2.1 °F 8.6 °F 73% 30.34 in 10.0 mi North 12.7 mph - N/A   Partly Cloudy
12:53 PM 17.1 °F 3.6 °F 8.1 °F 68% 30.45 in 10.0 mi North 12.7 mph - N/A   Clear
1:53 PM 17.1 °F 5.0 °F 8.1 °F 68% 30.45 in 10.0 mi North 10.4 mph - N/A   Clear
2:53 PM 17.1 °F 3.6 °F 7.0 °F 65% 30.47 in 10.0 mi North 12.7 mph - N/A   Clear
3:53 PM 17.1 °F 4.3 °F 7.0 °F 65% 30.48 in 10.0 mi North 11.5 mph - N/A   Clear
4:53 PM 16.0 °F 4.4 °F 7.0 °F 68% 30.50 in 10.0 mi NNE 9.2 mph - N/A   Clear
5:53 PM 12.0 °F -0.4 °F 5.0 °F 73% 30.51 in 10.0 mi NE 9.2 mph - N/A   Clear
6:53 PM 10.9 °F 2.9 °F 3.9 °F 73% 30.53 in 10.0 mi NNE 4.6 mph - N/A   Clear
7:53 PM 10.0 °F -3.7 °F 3.0 °F 73% 30.54 in 10.0 mi ENE 10.4 mph - N/A   Clear
8:53 PM 8.1 °F -3.2 °F 1.0 °F 73% 30.56 in 10.0 mi East 6.9 mph - N/A   Clear
9:53 PM 7.0 °F -5.7 °F 1.0 °F 77% 30.56 in 10.0 mi ESE 8.1 mph - N/A   Clear
10:53 PM 6.1 °F -4.3 °F -0.0 °F 76% 30.56 in 10.0 mi East 5.8 mph - N/A   Clear
11:53 PM 3.9 °F -10.4 °F -0.9 °F 80% 30.57 in 10.0 mi East 9.2 mph - N/A   Clear